カマラーサ-ドゥサノヴィッツ彗星

C/2023 V4 ( Camarasa-Duszanowicz )

English version
Home page
Updated on June 9, 2024

---------------------------------------------------------------------

・ プロフィール

発見日 2023年11月5日
発見光度 18.7等
発見者 Jordi Camarasa (Sabadell, Barcelona, Spain), Grzegorz Duszanowicz (Akersberga, Sweden)

・ 写真集

・ 軌道要素

Epoch 2024 Mar. 31.0 TT = JDT 2460400.5
T 2024 May 30.36400 TT                                  Rudenko
q   1.1217460            (2000.0)            P               Q
z  -0.0009394      Peri.   50.85194     -0.02253460     -0.53611181
 +/-0.0000077      Node    66.32569     +0.35728881     -0.79263670
e   1.0010537      Incl.   67.12980     +0.93372207     +0.29036388
>From 471 observations 2023 Nov. 5-2024 Apr. 27, mean residual 0".6.

・ 星図

・ 光度変化

        m1 = 9.0 + 5 logΔ + 16.0 log r

---------------------------------------------------------------------

軌道要素はM.P.E.C. 2024-J304に掲載されたものです。
星図はステラナビゲータ Ver.11 (アストロアーツ) で作成したものです。
光度グラフはComet for Windowsで作成したものです。

---------------------------------------------------------------------

Copyright(C) Seiichi Yoshida (comet@aerith.net). All rights reserved.